Location: Unspecified
(0.0000°N, 0.0000°E)
Time: 17:06:05
(UTC+00:00)

CZ-3B DEB - Visible Passes

Search period start: 07 February 2026 00:00
Search period end: 17 February 2026 00:00
Orbit: 1243 x 41658 km, 27.5° (Epoch: 1 February)

Date Brightness Start Highest point End Pass type
(mag) Time Alt. Az. Time Alt. Az. Time Alt. Az.
7 Feb ? 05:40:29 10° SSW 05:43:55 13° SSE 05:48:48 10° SE visible
8 Feb ? 07:24:48 10° SSW 16:20:19 58° NNE 19:34:40 20° ENE visible
9 Feb ? 09:09:17 10° SW 15:11:55 65° NNE 21:15:05 50° NE visible
10 Feb ? 10:55:04 10° SW 11:44:04 83° SE 22:55:30 53° NW visible
11 Feb ? 12:43:50 10° WSW 14:08:11 66° WNW 00:35:55 23° WNW visible
12 Feb ? 14:41:02 10° WSW 16:04:38 36° W 20:03:12 10° WNW visible
13 Feb ? 02:45:04 13° SSE 02:45:04 13° SSE 02:45:48 10° SSE visible
14 Feb ? 04:27:41 10° SSW 04:28:58 10° S 04:30:19 10° S visible
16 Feb ? 07:57:01 10° SW 15:23:09 62° NNE 20:07:55 32° ENE visible
